Location: Unspecified
(43.4680°N, 87.1740°E)
Time: 15:19:52
(UTC+00:00)

Cosmos 1356 Rocket - Pass Details

Date: 05 August 2021
Orbit: 543 x 597 km, 81.2° (Epoch: 19 September)

Event Time Altitude Azimuth Distance (km) Brightness Sun altitude
Exits shadow 18:45:33 22° 52° (NE) 1,214 5.4 -29.4°
Drops below altitude 10° 18:47:27 10° 31° (NNE) 1,818 6.7 -29.4°
Sets 18:49:48 0° 21° (NNE) 2,718 8.0 -29.3°
